Погода в Оськино

Россия / Воронежская область     51°14′44″N   39°01′41″E
темп.,
°C
ветер,
м/с
пор.,
м/с
влажн.,
%
обл.,
%
осадки,
мм/ч
давл.,
гПа
погр.,
м
14 мая, пт
пт1400:00+14в1187100 0.1 101512
03:00+12юв22915 1.1 101622
06:00+13вюв389067 0.5 1015174
09:00+18юв6976100 0.5 1015429
12:00+22юв81162100 0.0 10141086
15:00+22юв4864100 0.8 10141131
18:00+21вюв61371100 0.4 1011496
21:00+17вюв378865 0.4 1011112
15 мая, сб
сб1500:00+16ююв41190100 0.0 1011187
03:00+15ю38935 0.0 1011148
06:00+16юз259379 0.0 1011121
09:00+19ююз3471100 0.0 1012389
12:00+23ююз57555 0.0 10131255
15:00+23ююз6750100 0.0 10131467
18:00+21юз47658 0.0 1013416
21:00+16ююз22765 0.0 101416
16 мая, вс
вс1600:00+15ююз128095 0.0 101411
03:00+14з118365 0.0 101511
06:00+15в11814 0.0 101511
09:00+20вюв22639 0.0 1015435
12:00+23вюв225094 0.0 10151358
15:00+25в234814 0.0 10141663
18:00+23св3665100 0.0 1013272
21:00+18св3681100 0.0 101291
17 мая, пн
пн1700:00+16всв228096 0.0 101228
03:00+15всв3680100 0.0 101292
06:00+15в278125 0.0 1011130
09:00+22юв58565 0.0 1012453
12:00+26вюв710455 0.0 1011962
15:00+27юв711481 0.0 10102020
18:00+24вюв612585 0.0 1009513
21:00+18в413775 0.0 1009245
18 мая, вт
вт1800:00+16вюв310755 0.0 1008174
03:00+15юв38725 0.0 1008131
06:00+16ююв388430 0.0 1009213
09:00+19ю578978 0.8 1009499
12:00+20ю5984100 0.1 1010515
15:00+22юз6873100 1.1 10111084
18:00+20юз4675100 0.1 1011542
21:00+17ююз1183100 0.3 101211